Back to catalog

STARLINK-34359

AliveCommunicationsVLEO
NORAD 64280·PAYLOAD·🇺🇸 United States

Launched Jun 4, 2025 from Vandenberg Space Force Base

Loading…

Next Passes (next 24 hours)

TLE

FreshSource: CelesTrak SupGP

Epoch: Sep 14, 2026, 21:27 UTC

1 64280C 25120AA  26257.89423611 -.00005174  00000+0 -15294-3 0  2575
2 64280  53.1586 315.9016 0001122  86.9172 205.1701 15.34374834    13

Track STARLINK-34359 in real time with AllMySat

Download on the App Store